Probability
42 81 97 100 100 100 100 100 100 100 100 87 84 74 68 55 45 42 19 16 6 6 3 3 3 0 3 0 0 0 0 0 0 0 0 0 0 0 0 0 0 0 0
42 81 100 100 100 100 100 100 100 100 97 87 81 74 55 39 16 6 6 3 3 0 0 3 0 0 0 0 0 0 0 0 0 0 0 0 0 0 0 0 0 0 0
42 87 94 97 100 100 100 100 97 90 81 77 55 39 16 10 3 3 3 0 0 0 0 0 0 0 0 0 0 0 0 0 0 0 0 0 0 0 0 0 0 0 0
42 71 97 97 100 97 97 90 81 74 55 48 35 13 10 0 0 0 0 0 0 0 0 0 0 0 0 0 0 0 0 0 0 0 0 0 0 0 0 0 0 0 0
35 65 90 97 94 90 71 61 48 42 32 26 23 23 6 6 3 3 0 0 0 0 0 0 0 0 0 0 0 0 0 0 0 0 0 0 0 0 0 0 0 0 0
35 84 97 94 84 65 45 35 26 13 13 13 13 10 10 6 3 3 0 0 0 0 0 0 0 0 0 0 0 0 0 0 0 0 0 0 0 0 0 0 0 0 0
68 94 97 77 55 35 23 16 13 6 6 6 6 6 3 3 3 0 0 0 0 0 0 0 0 0 0 0 0 0 0 0 0 0 0 0 0 0 0 0 0 0 0
81 100 81 48 29 19 13 10 3 3 3 3 3 3 3 3 0 0 0 0 0 0 0 0 0 0 0 0 0 0 0 0 0 0 0 0 0 0 0 0 0 0 0
74 90 55 32 23 10 6 3 0 3 3 3 3 3 0 0 0 0 0 0 0 0 0 0 0 0 0 0 0 0 0 0 0 0 0 0 0 0 0 0 0 0 0
74 74 42 26 10 6 6 0 0 0 3 0 0 0 0 0 0 0 0 0 0 0 0 0 0 0 0 0 0 0 0 0 0 0 0 0 0 0 0 0 0 0 0
68 55 29 16 6 3 0 0 0 0 0 0 0 0 0 0 0 0 0 0 0 0 0 0 0 0 0 0 0 0 0 0 0 0 0 0 0 0 0 0 0 0 0
71 55 19 3 3 0 0 0 0 0 0 0 0 0 0 0 0 0 0 0 0 0 0 0 0 0 0 0 0 0 0 0 0 0 0 0 0 0 0 0 0 0 0
55 29 16 3 0 0 0 0 0 0 0 0 0 0 0 0 0 0 0 0 0 0 0 0 0 0 0 0 0 0 0 0 0 0 0 0 0 0 0 0 0 0 0
52 23 3 0 0 0 0 0 0 0 0 0 0 0 0 0 0 0 0 0 0 0 0 0 0 0 0 0 0 0 0 0 0 0 0 0 0 0 0 0 0 0 0
32 13 10 0 0 0 0 0 0 0 0 0 0 0 0 0 0 0 0 0 0 0 0 0 0 0 0 0 0 0 0 0 0 0 0 0 0 0 0 0 0 0 0
16 16 10 0 0 0 0 0 0 0 0 0 0 0 0 0 0 0 0 0 0 0 0 0 0 0 0 0 0 0 0 0 0 0 0 0 0 0 0 0 0 0 0
16 13 3 0 0 0 0 0 0 0 0 0 0 0 0 0 0 0 0 0 0 0 0 0 0 0 0 0 0 0 0 0 0 0 0 0 0 0 0 0 0 0 0
0 0 0 0 0 0 0 0 0 0 0 0 0 0 0 0 0 0 0 0 0 0 0 0 0 0 0 0 0 0 0 0 0 0 0 0 0 0 0 0 0 0 0
0 0 0 0 0 0 0 0 0 0 0 0 0 0 0 0 0 0 0 0 0 0 0 0 0 0 0 0 0 0 0 0 0 0 0 0 0 0 0 0 0 0 0
0 0 0 0 0 0 0 0 0 0 0 0 0 0 0 0 0 0 0 0 0 0 0 0 0 0 0 0 0 0 0 0 0 0 0 0 0 0 0 0 0 0 0
0 0 0 0 0 0 0 0 0 0 0 0 0 0 0 0 0 0 0 0 0 0 0 0 0 0 0 0 0 0 0 0 0 0 0 0 0 0 0 0 0 0 0
0 0 0 0 0 0 0 0 0 0 0 0 0 0 0 0 0 0 0 0 0 0 0 0 0 0 0 0 0 0 0 0 0 0 0 0 0 0 0 0 0 0 0
0 0 0 0 0 0 0 0 0 0 0 0 0 0 0 0 0 0 0 0 0 0 0 0 0 0 0 0 0 0 0 0 0 0 0 0 0 0 0 0 0 0 0
0 0 0 0 0 0 0 0 0 0 0 0 0 0 0 0 0 0 0 0 0 0 0 0 0 0 0 0 0 0 0 0 0 0 0 0 0 0 0 0 0 0 0
0 0 0 0 0 0 0 0 0 0 0 0 0 0 0 0 0 0 0 0 0 0 0 0 0 0 0 0 0 0 0 0 0 0 0 0 0 0 0 0 0 0 0
0 0 0 0 0 0 0 0 0 0 0 0 0 0 0 0 0 0 0 0 0 0 0 0 0 0 0 0 0 0 0 0 0 0 0 0 0 0 0 0 0 0 0
Height
5863 5860 5855 5852 5853 5853 5854 5854 5852 5851 5851 5849 5848 5846 5844 5841 5840 5838 5835 5833 5831 5830 5827 5826 5824 5821 5817 5814 5812 5809 5805 5802 5797 5794 5791 5788 5783 5779 5775 5770 5766 5762 5758
5857 5855 5850 5847 5845 5846 5848 5848 5846 5845 5844 5842 5841 5839 5836 5834 5833 5831 5828 5826 5824 5822 5820 5818 5815 5812 5808 5805 5802 5798 5794 5790 5785 5781 5777 5775 5772 5765 5760 5755 5751 5747 5742
5850 5848 5844 5841 5840 5841 5841 5840 5839 5837 5836 5834 5833 5830 5828 5825 5824 5822 5820 5818 5815 5813 5811 5809 5805 5802 5798 5795 5791 5787 5783 5778 5773 5768 5763 5760 5756 5752 5747 5739 5734 5729 5725
5841 5839 5837 5835 5835 5834 5833 5832 5831 5829 5828 5826 5824 5822 5820 5818 5815 5814 5812 5809 5806 5804 5802 5799 5795 5791 5787 5783 5778 5774 5769 5765 5760 5754 5748 5744 5740 5736 5733 5727 5719 5714 5709
5833 5830 5829 5828 5827 5826 5824 5823 5822 5821 5819 5818 5816 5813 5811 5809 5806 5804 5802 5799 5796 5794 5791 5788 5784 5779 5775 5771 5766 5761 5756 5751 5746 5740 5734 5728 5723 5719 5715 5712 5706 5700 5694
5823 5820 5820 5820 5819 5817 5816 5814 5813 5812 5810 5809 5807 5805 5802 5800 5797 5794 5792 5788 5786 5783 5781 5777 5773 5768 5763 5759 5754 5749 5743 5737 5731 5725 5719 5713 5708 5702 5697 5694 5689 5684 5678
5814 5812 5813 5812 5811 5809 5807 5806 5804 5803 5802 5800 5798 5796 5793 5790 5787 5784 5781 5778 5774 5772 5770 5765 5761 5756 5751 5746 5740 5735 5729 5723 5717 5711 5704 5698 5692 5686 5680 5675 5670 5666 5661
5806 5805 5804 5803 5801 5800 5799 5798 5796 5795 5793 5791 5789 5787 5784 5781 5778 5774 5771 5768 5763 5760 5757 5753 5748 5743 5737 5732 5726 5720 5714 5708 5702 5696 5690 5684 5677 5670 5664 5657 5652 5647 5643
5797 5795 5795 5794 5793 5791 5791 5789 5788 5786 5784 5782 5780 5777 5774 5772 5769 5764 5761 5758 5753 5749 5745 5740 5735 5730 5724 5718 5712 5706 5700 5693 5687 5681 5675 5668 5661 5654 5646 5639 5633 5627 5624
5787 5786 5786 5785 5784 5784 5782 5781 5779 5778 5776 5773 5771 5768 5765 5762 5758 5754 5750 5746 5742 5737 5732 5727 5721 5716 5710 5704 5698 5692 5685 5679 5672 5666 5659 5652 5644 5636 5628 5621 5614 5607 5602
5779 5779 5778 5778 5777 5776 5774 5772 5771 5769 5766 5764 5761 5758 5755 5751 5747 5743 5739 5735 5730 5724 5719 5713 5708 5702 5696 5690 5684 5678 5671 5664 5657 5650 5643 5635 5627 5619 5611 5603 5596 5588 5581
5771 5770 5770 5770 5769 5768 5766 5764 5762 5759 5757 5754 5751 5748 5744 5740 5736 5732 5727 5722 5717 5711 5705 5700 5694 5688 5682 5676 5670 5663 5656 5649 5642 5634 5626 5618 5610 5602 5593 5585 5577 5570 5562
5759 5760 5762 5762 5760 5759 5757 5754 5752 5749 5746 5743 5740 5736 5732 5728 5723 5719 5714 5709 5703 5697 5691 5685 5680 5674 5668 5662 5655 5648 5641 5634 5626 5618 5610 5601 5592 5584 5575 5567 5559 5552 5546
5751 5752 5753 5752 5751 5749 5747 5744 5741 5738 5735 5732 5728 5724 5720 5716 5711 5706 5701 5695 5689 5683 5677 5671 5665 5659 5654 5648 5640 5634 5627 5619 5611 5602 5593 5584 5575 5567 5559 5551 5544 5538 5532
5745 5744 5743 5742 5740 5738 5736 5733 5730 5726 5723 5719 5715 5711 5707 5702 5697 5692 5687 5681 5675 5669 5663 5657 5651 5645 5640 5633 5626 5620 5612 5605 5596 5587 5578 5569 5560 5552 5544 5538 5532 5526 5521
5737 5734 5732 5730 5729 5726 5724 5721 5717 5713 5709 5705 5702 5698 5693 5689 5684 5679 5673 5667 5661 5655 5649 5643 5637 5632 5626 5619 5613 5606 5598 5590 5582 5573 5564 5555 5547 5539 5532 5526 5520 5515 5510
5727 5723 5720 5718 5716 5713 5710 5707 5703 5700 5696 5692 5689 5685 5680 5676 5671 5665 5660 5654 5648 5642 5636 5630 5624 5619 5613 5606 5599 5592 5584 5576 5568 5560 5552 5544 5536 5529 5523 5517 5511 5507 5503
5715 5712 5708 5705 5702 5699 5696 5693 5690 5687 5683 5680 5676 5672 5668 5663 5658 5653 5647 5641 5635 5629 5623 5618 5612 5606 5601 5594 5587 5579 5571 5563 5555 5548 5541 5534 5527 5520 5515 5510 5505 5502 5499
5702 5699 5696 5693 5689 5686 5684 5681 5678 5675 5672 5668 5665 5660 5656 5651 5645 5640 5634 5628 5622 5617 5611 5606 5600 5594 5588 5582 5574 5567 5560 5553 5546 5539 5533 5526 5521 5515 5510 5505 5502 5500 5498
5690 5687 5684 5681 5678 5675 5672 5669 5667 5664 5661 5657 5653 5649 5644 5639 5633 5627 5621 5616 5611 5605 5600 5594 5588 5582 5576 5569 5563 5557 5551 5545 5539 5533 5527 5521 5516 5512 5508 5504 5502 5500 5498
5678 5675 5673 5670 5667 5664 5662 5659 5656 5653 5650 5647 5642 5638 5632 5627 5622 5615 5610 5605 5600 5594 5589 5583 5577 5571 5565 5558 5553 5549 5544 5539 5534 5528 5523 5518 5514 5511 5508 5505 5503 5501 5500
5669 5666 5663 5660 5658 5655 5653 5650 5647 5644 5640 5636 5631 5626 5621 5616 5611 5606 5600 5594 5589 5583 5577 5571 5566 5560 5555 5551 5546 5542 5537 5533 5529 5525 5521 5517 5514 5511 5509 5507 5505 5504 5503
5660 5658 5655 5653 5650 5648 5645 5642 5639 5635 5631 5627 5622 5616 5611 5606 5601 5596 5590 5584 5578 5572 5567 5562 5557 5553 5549 5545 5541 5536 5533 5529 5526 5523 5520 5518 5515 5513 5511 5510 5509 5507 5506
5653 5651 5648 5646 5643 5641 5638 5634 5631 5626 5622 5618 5613 5608 5603 5598 5592 5586 5580 5574 5569 5564 5560 5555 5551 5548 5544 5540 5536 5533 5529 5527 5524 5522 5521 5519 5517 5516 5514 5513 5512 5511 5510
5647 5645 5643 5641 5638 5635 5631 5627 5623 5619 5615 5611 5606 5601 5595 5589 5583 5577 5572 5567 5563 5559 5555 5551 5547 5544 5540 5537 5533 5530 5528 5526 5524 5523 5522 5521 5520 5519 5518 5517 5516 5515 5513
5643 5641 5639 5636 5633 5630 5626 5623 5619 5614 5610 5604 5599 5593 5587 5582 5577 5572 5567 5563 5559 5555 5551 5548 5544 5540 5537 5534 5531 5529 5527 5526 5525 5525 5525 5524 5523 5523 5522 5521 5520 5518 5517
Wind_Speed
32 35 39 39 34 32 30 31 34 34 35 36 38 40 41 42 42 40 40 38 35 34 34 33 34 36 39 40 41 43 45 48 50 51 53 54 56 58 60 62 63 65 66
36 38 42 43 39 34 34 34 36 37 38 39 41 43 44 45 44 43 42 40 36 35 35 37 38 39 41 43 44 46 48 50 53 55 56 56 58 60 62 63 65 66 67
38 41 44 45 43 41 39 38 38 39 40 41 43 45 47 47 46 45 43 41 40 38 38 39 41 42 44 45 47 48 50 52 54 56 57 58 58 59 61 64 66 67 67
38 42 45 46 44 43 41 41 40 39 40 42 45 46 47 48 48 47 45 43 42 41 40 41 42 45 46 46 47 48 51 52 54 56 58 59 60 60 61 63 65 65 65
39 41 43 44 43 42 42 41 40 40 42 44 45 46 47 48 47 47 46 45 44 43 42 42 44 45 46 47 49 51 53 55 56 58 60 61 62 63 63 63 64 65 65
39 41 40 38 38 40 40 40 40 41 43 44 46 46 47 48 47 47 47 46 46 45 44 45 46 48 49 50 51 53 55 57 59 60 61 62 63 64 64 64 65 66 67
39 40 37 36 37 38 38 39 40 42 43 44 46 47 47 48 48 48 48 47 48 46 46 46 49 51 53 53 54 56 58 60 60 61 61 62 62 64 65 66 67 67 67
38 38 37 36 36 36 37 38 39 41 42 44 45 46 47 47 48 48 48 48 48 48 48 50 52 54 56 56 57 58 59 60 60 60 60 61 63 65 66 67 68 67 66
32 33 33 33 34 35 36 38 39 40 41 42 43 45 46 46 46 48 48 47 48 50 51 53 56 57 58 58 58 59 60 61 60 60 61 63 65 67 68 68 68 68 66
27 28 28 30 32 34 35 36 38 39 40 42 43 45 46 46 46 46 46 48 50 52 55 57 58 58 58 58 59 60 61 61 61 62 64 65 67 68 69 69 69 69 68
33 32 30 30 32 34 36 37 38 39 41 42 44 45 46 46 47 48 49 51 53 55 57 58 59 59 58 59 60 61 62 62 62 64 65 67 68 68 69 69 69 68 68
37 35 31 30 32 34 36 37 39 40 42 43 45 46 47 48 50 52 53 54 55 57 58 60 60 60 61 62 61 61 62 62 63 64 66 67 68 68 68 68 67 66 64
35 32 30 32 34 36 37 38 40 42 43 45 47 49 51 52 54 55 55 56 57 58 61 62 62 62 62 61 60 60 61 62 64 65 67 67 68 67 66 65 62 58 55
29 32 35 37 38 39 41 42 44 46 47 50 52 53 54 55 55 55 56 58 59 60 63 64 63 62 61 59 59 60 61 62 64 65 66 66 65 63 60 56 53 50 47
44 46 45 44 45 45 46 47 49 51 52 54 55 56 56 55 55 56 57 60 63 64 65 64 64 62 58 57 58 59 61 62 63 63 63 61 58 55 52 49 46 44 41
54 53 52 50 50 49 50 51 52 54 55 56 56 56 56 56 56 57 60 63 65 67 65 63 59 56 55 55 57 59 60 61 61 60 57 54 51 48 46 44 41 38 35
54 54 54 54 53 52 52 52 53 53 54 55 55 54 55 56 58 59 61 65 66 64 61 57 54 53 53 55 56 57 58 57 56 53 50 47 44 42 39 36 33 30 25
52 53 53 54 53 52 51 51 51 51 51 51 51 52 54 57 59 61 64 66 64 59 55 52 51 51 52 53 54 54 53 51 48 46 43 40 37 34 31 28 24 20 16
49 50 50 50 50 49 48 48 47 47 48 49 49 52 55 58 60 61 62 60 57 52 49 49 49 50 51 51 50 49 46 43 41 39 37 34 30 28 24 19 15 12 9
47 47 47 47 46 45 45 44 44 44 45 47 49 52 56 58 57 56 54 51 48 46 47 48 48 48 47 46 44 41 37 35 34 33 31 27 24 20 16 12 9 7 6
43 42 42 41 40 40 39 39 40 41 43 46 50 53 54 53 50 48 46 45 45 46 46 46 45 43 40 38 35 32 30 28 27 25 22 19 16 13 9 7 6 6 7
37 37 36 35 35 34 34 36 38 41 43 46 48 48 47 46 44 43 43 43 43 43 41 40 38 35 32 30 28 27 25 23 20 17 14 12 10 8 6 7 8 9 9
32 31 31 30 30 30 32 35 38 41 42 43 41 40 39 39 40 41 41 40 39 36 34 32 29 27 25 25 24 23 20 17 14 11 9 7 6 6 8 9 10 11 11
27 26 26 26 27 29 32 35 36 37 36 34 33 34 35 36 37 38 36 34 31 28 26 24 23 22 22 21 20 19 16 13 9 7 6 6 8 10 11 12 12 11 11
21 21 22 23 25 27 28 28 28 28 29 30 31 33 34 34 33 30 27 25 22 21 20 20 20 20 19 18 16 14 12 9 6 5 7 9 11 13 13 12 11 11 10
17 18 20 20 21 21 22 23 24 26 28 30 31 31 30 27 25 22 20 19 18 19 20 20 19 18 16 15 13 10 8 5 5 8 10 12 13 12 11 11 11 10 10
Wind_Direction
274 278 282 284 287 292 293 292 291 291 290 291 291 292 293 294 296 296 294 296 289 284 284 285 288 291 292 292 293 292 291 290 289 289 289 288 287 286 286 286 286 286 286
268 272 277 281 285 290 292 290 288 287 287 287 288 288 289 290 292 295 296 297 291 290 289 288 288 290 291 291 292 292 292 291 290 289 289 288 288 288 287 286 286 286 286
266 269 272 277 283 287 289 287 284 283 283 284 284 285 286 288 291 295 297 298 294 293 291 290 291 291 292 293 293 293 292 291 290 289 289 289 289 288 288 288 288 288 289
269 271 272 275 280 284 284 283 281 281 281 282 283 283 285 287 290 292 294 295 295 293 292 292 292 292 294 296 295 296 295 294 293 292 291 290 289 288 288 289 290 290 290
272 274 273 273 277 279 279 279 278 279 280 281 282 283 285 286 289 292 293 293 294 295 294 294 294 295 296 296 296 297 296 296 295 294 293 292 291 291 290 290 291 291 291
272 273 276 274 273 272 273 275 277 278 279 281 283 284 286 288 290 291 293 293 293 293 293 295 294 295 297 297 297 297 296 296 295 294 294 293 293 293 293 293 292 292 292
267 272 274 272 268 267 269 271 274 277 279 281 283 285 286 287 289 291 291 291 291 291 293 294 295 297 298 297 297 297 297 297 296 296 295 295 295 295 295 295 294 293 292
269 269 268 267 266 266 267 270 273 276 279 281 282 284 284 286 288 289 289 289 290 292 295 297 298 298 298 297 297 298 297 297 298 297 297 297 296 296 296 295 294 293 292
267 265 263 263 264 266 268 270 272 275 277 279 281 282 284 286 287 288 288 290 292 294 297 297 298 298 297 297 298 299 299 300 299 299 299 298 298 297 296 295 295 294 292
270 270 264 263 265 266 268 270 273 275 277 279 280 282 284 286 288 289 291 294 295 296 297 298 298 297 297 298 299 300 301 300 300 299 299 299 299 298 297 296 295 294 293
276 276 271 270 268 269 270 272 274 276 278 280 282 283 285 287 289 290 293 295 295 296 297 297 297 297 298 299 299 300 300 300 300 300 300 299 299 298 297 296 295 294 293
274 275 273 273 273 273 274 275 277 278 280 282 284 286 288 290 292 292 294 295 296 296 295 296 297 297 298 299 300 300 300 300 300 300 300 300 300 299 298 297 296 295 294
268 275 281 281 279 278 278 279 280 281 283 285 287 289 290 292 293 293 294 296 296 295 296 297 297 298 299 300 300 300 301 301 301 301 302 302 301 300 300 299 297 296 295
278 283 285 284 282 280 280 281 281 283 284 286 288 290 291 292 293 293 294 295 294 295 296 296 297 299 300 301 300 301 302 302 303 303 303 303 303 302 301 300 299 298 297
285 287 285 283 282 281 281 282 283 284 286 287 288 290 291 292 293 294 294 295 295 295 295 295 297 299 301 301 302 302 303 303 304 305 305 305 304 304 303 303 302 300 298
282 283 283 282 282 282 283 283 284 285 286 287 288 290 291 291 292 292 293 294 293 293 294 297 298 301 303 302 303 303 304 305 306 306 306 306 306 306 305 305 304 302 300
279 280 281 283 284 284 284 284 284 284 285 286 288 289 290 290 291 292 292 291 291 293 295 299 301 302 303 303 303 304 306 307 308 308 308 308 309 308 308 308 307 306 304
280 282 283 284 285 286 285 285 284 284 285 286 287 288 289 289 290 290 290 292 293 295 298 302 302 303 303 304 305 307 308 309 309 310 311 313 313 313 313 312 311 311 309
281 282 283 284 284 285 285 284 284 284 285 286 287 288 288 288 288 289 290 292 296 300 302 303 303 304 304 305 307 308 310 310 312 313 315 317 318 319 320 320 320 321 323
282 283 284 284 284 284 284 284 284 284 285 286 287 286 287 288 289 291 294 297 300 303 304 304 304 305 306 307 308 309 311 313 314 315 317 320 322 325 328 334 342 350 355
284 284 285 285 285 285 285 284 284 284 283 284 284 285 286 288 293 297 301 304 304 304 304 305 306 306 306 307 308 310 312 314 316 317 320 323 329 335 344 359 15 27 38
284 285 285 286 287 287 287 286 284 283 282 283 285 287 290 295 299 303 305 305 306 306 307 307 307 307 307 309 311 314 316 319 321 323 328 334 343 356 17 40 53 60 61
285 285 286 287 288 287 285 282 281 281 283 287 291 296 301 303 305 306 307 308 309 310 310 310 310 310 312 314 316 318 322 327 331 336 346 358 15 42 62 69 70 68 66
286 288 289 290 288 285 282 282 285 288 293 300 304 306 306 307 308 310 312 314 315 316 316 317 317 318 319 320 321 324 329 337 345 357 16 43 68 77 79 77 73 69 63
290 292 293 292 289 288 289 295 300 306 308 309 309 309 311 313 316 318 320 321 322 324 325 325 325 324 324 326 327 329 335 345 7 44 71 84 86 86 83 76 70 64 56
294 296 296 296 299 303 307 310 312 312 311 312 314 317 319 321 324 326 328 329 329 330 331 331 331 330 329 331 334 340 351 21 75 88 92 92 90 86 80 73 67 58 52